Voltar ao catálogo

COSMOS 1249

AtivoNavegaçãoLEO
NORAD 12319·PAYLOAD·🇷🇺 Russia

Lançado Mar 5, 1981 de Baikonur Cosmodrome

Loading…

Próximas Passagens (próximas 24 horas)

TLE

AtualizadoSource: Space-Track

Época: Sep 14, 2026, 10:10 UTC

1 12319U 81021A   26257.42380229 -.00000075  00000-0  12320-4 0  9995
2 12319  64.9622 269.2499 0066040 247.5755 111.8302 13.86778338307223

Acompanhe COSMOS 1249 em tempo real com AllMySat

Download on the App Store